Flag for Greece Weather past 2 weeks in Ilioupoli, Greece

Now
55 °F

Sunny.


Feels Like: 55 °F
Forecast: 54 / 73 °F
Wind: 2 mph from North

Location: Eleftherios Venizelos International Airport

Current Time: Apr 27, 2015 at 8:49:08 AM

Latest Report: Apr 27, 2015 at 8:20 AM


Visibility: 10 mi

Pressure: 30.01 "Hg

Humidity: 94%

Dew point: 54 °F

Location of IlioupoliLocation

Historic Weather in Ilioupoli — Graph

°F

Ilioupoli temperature yesterday

Maximum temperature yesterday: 70 °F (at 2:50 PM)
Minimum temperature yesterday: 46 °F (at 4:50 AM)
Average temperature yesterday: 58 °F

Past Weeks' High & Low Weather Summary

 TemperatureHumidityPressure
High73 °F (Apr 13, 4:50 PM)94% (Apr 26, 3:20 AM)30.27 "Hg (Apr 26, 3:20 AM)
Low41 °F (Apr 12, 7:20 AM)21% (Apr 22, 2:20 PM)29.83 "Hg (Apr 19, 5:50 AM)
Average59 °F60%30.09 "Hg
* Reported Apr 12 7:20 AM — Apr 27 7:50 AM, Ilioupoli, Weather by CustomWeather, © 2015

Note: Actual official high and low records may vary slightly from our data, if they occured in-between our weather recording intervals... More about our weather records

Advertising

Ilioupoli weather history for previous 24 hours

 ConditionsComfort  
Time TempWeatherWind HumidityBarometerVisibility
7:50 AM
Mon, Apr 27
50 °FSunny.3 mph94%30.01 "Hg10 mi
7:20 AM46 °FClear.3 mph93%29.98 "Hg10 mi
6:50 AM48 °FPassing clouds.2 mph94%29.98 "HgN/A
6:20 AM46 °FPassing clouds.1 mph93%29.98 "HgN/A
5:50 AM54 °FPassing clouds.2 mph88%29.98 "HgN/A
5:20 AM46 °FPassing clouds.1 mph93%29.98 "HgN/A
4:50 AM52 °FPassing clouds.No wind94%29.98 "HgN/A
4:20 AM50 °FPassing clouds.2 mph94%29.98 "HgN/A
3:50 AM50 °FPassing clouds.2 mph94%29.98 "HgN/A
3:20 AM54 °FPassing clouds.2 mph88%29.98 "HgN/A
2:50 AM52 °FPassing clouds.5 mph88%30.01 "HgN/A
2:20 AM52 °FPassing clouds.3 mph88%30.01 "HgN/A
1:50 AM55 °FPassing clouds.3 mph88%30.01 "HgN/A
1:20 AM54 °FPassing clouds.6 mph82%30.01 "HgN/A
12:50 AM54 °FPassing clouds.7 mph88%30.01 "HgN/A
12:20 AM52 °FPassing clouds.5 mph88%30.01 "HgN/A
11:50 PM
Sun, Apr 26
52 °FPassing clouds.3 mph88%30.01 "HgN/A
11:20 PM54 °FPassing clouds.3 mph88%30.01 "HgN/A
10:50 PM54 °FPassing clouds.2 mph82%30.01 "HgN/A
10:20 PM55 °FPassing clouds.1 mph77%30.01 "HgN/A
9:50 PM57 °FPassing clouds.1 mph72%30.01 "HgN/A
9:20 PM57 °FClear.2 mph77%30.01 "Hg10 mi
8:50 PM59 °FPassing clouds.5 mph72%30.01 "HgN/A
8:20 PM59 °FPassing clouds.3 mph68%30.01 "HgN/A
7:50 PM61 °FPassing clouds.5 mph68%30.01 "HgN/A
7:20 PM63 °FPassing clouds.7 mph68%30.01 "HgN/A
5:50 PM66 °FPassing clouds.8 mph60%29.98 "HgN/A
5:20 PM66 °FPassing clouds.7 mph64%29.98 "HgN/A
4:50 PM64 °FPassing clouds.8 mph68%30.01 "HgN/A
4:20 PM66 °FPassing clouds.7 mph64%30.01 "HgN/A
3:50 PM66 °FPassing clouds.8 mph64%30.01 "HgN/A
3:20 PM68 °FPassing clouds.10 mph56%30.01 "HgN/A
2:50 PM70 °FPassing clouds.9 mph53%30.01 "HgN/A
2:20 PM68 °FPassing clouds.8 mph53%30.04 "HgN/A
1:20 PM68 °FPassing clouds.7 mph53%30.04 "HgN/A
12:50 PM68 °FPassing clouds.9 mph49%30.04 "HgN/A
12:20 PM68 °FPassing clouds.6 mph53%30.04 "HgN/A
11:50 AM66 °FPassing clouds.5 mph60%30.04 "HgN/A
11:20 AM66 °FPassing clouds.3 mph60%30.04 "HgN/A
10:50 AM64 °FPassing clouds.3 mph68%30.04 "HgN/A
10:20 AM64 °FPassing clouds.3 mph68%30.04 "HgN/A
9:50 AM63 °FScattered clouds.3 mph73%30.07 "HgN/A
9:20 AM61 °FPassing clouds.3 mph77%30.04 "HgN/A
8:50 AM59 °FPassing clouds.2 mph82%30.04 "HgN/A
8:20 AM57 °FScattered clouds.3 mph82%30.04 "HgN/A
Weather by CustomWeather, © 2015

See weather overviewHow to use our weather pages